Pagina principale
METAR-TAF:

METAR-TAF

Aeroporti :

Town MET

Windhoek, Namibia

latitudine: 22-34S, longitudine: 017-06E, altezza: 1725 m

Osservazione

Il bollettino è stato emesso 35 minuti fa, alle 02:00 UTC
Vento 3 kt da est/sud-est
Temperature 18°C
Umidità 73%
Pressione 1020 hPa

METAR: FYWW 240200Z AUTO 11003KT //// // ////// 18/13 Q1020

Ora: 04:35 (02:35 UTC)


TAF: mancante

Osservazioni e previsioni meteorologiche di più di 4000 aeroporti (messaggi METAR e TAF).

Le stazioni disponibili sono rappresentate dai dischi gialli e rossi sulla carta.

Puntare il mouse per vedere il nome della stazione.

Clicca sopra per visualizzare le osservazioni e previsioni meteorologiche.

Per cambiare la mappa : fare clic sui pulsanti verdi con una croce nera per ingrandire, il pulsante verde con un trattino per diminuire, o sulla freccia verde per le mappe adiacenti.


METAR-TAF: